| time (UTC) | temp C | wind direction | speed KPH | gust KPH | rain 1hr cm | rain 24hr cm | rain mn cm | humidity % | barometer mb |
| 20260504044544 | 16 | 16 | 4.8 | 20.9 | 0.00 | 0.00 | 0.00 | 71 | 1009.4 |
| 20260504043110 | 16 | 11 | 8.0 | 20.9 | 0.00 | 0.00 | 0.00 | 70 | 1009.5 |
| 20260504041549 | 16 | 32 | 8.0 | 25.7 | 0.00 | 0.00 | 0.00 | 70 | 1009.3 |
| 20260504040043 | 17 | 37 | 9.7 | 22.5 | 0.00 | 0.00 | 0.00 | 68 | 1009.4 |
| 20260504034552 | 16 | 310 | 9.7 | 22.5 | 0.00 | 0.00 | 0.00 | 69 | 1009.5 |
| 20260504033043 | 16 | 11 | 8.0 | 22.5 | 0.00 | 0.00 | 0.00 | 71 | 1009.5 |
| 20260504031552 | 15 | 34 | 8.0 | 27.4 | 0.00 | 0.00 | 0.00 | 70 | 1009.7 |
| 20260504030055 | 15 | 262 | 6.4 | 20.9 | 0.00 | 0.00 | 0.00 | 68 | 1010.0 |
| 20260504024543 | 16 | 40 | 6.4 | 19.3 | 0.00 | 0.00 | 0.00 | 66 | 1010.0 |
| 20260504023043 | 17 | 343 | 12.9 | 27.4 | 0.00 | 0.00 | 0.00 | 63 | 1010.2 |
| 20260504021549 | 17 | 274 | 11.3 | 24.1 | 0.00 | 0.00 | 0.00 | 64 | 1010.3 |
| 20260504020043 | 17 | 281 | 9.7 | 24.1 | 0.00 | 0.00 | 0.00 | 63 | 1010.8 |
| 20260504014549 | 16 | 316 | 11.3 | 32.2 | 0.00 | 0.00 | 0.00 | 65 | 1010.9 |
| 20260504013053 | 16 | 320 | 6.4 | 22.5 | 0.00 | 0.00 | 0.00 | 66 | 1011.0 |
| 20260504011541 | 16 | 330 | 9.7 | 32.2 | 0.00 | 0.00 | 0.00 | 66 | 1010.9 |
| 20260504010056 | 16 | 348 | 11.3 | 30.6 | 0.00 | 0.00 | 0.00 | 68 | 1010.9 |
| 20260504004547 | 16 | 245 | 9.7 | 22.5 | 0.00 | 0.15 | 0.00 | 70 | 1010.9 |
| 20260504003047 | 15 | 17 | 11.3 | 24.1 | 0.00 | 0.15 | 0.00 | 70 | 1010.9 |
| 20260504001543 | 15 | 336 | 12.9 | 32.2 | 0.00 | 0.15 | 0.00 | 69 | 1011.1 |
| 20260504000057 | 15 | 352 | 9.7 | 22.5 | 0.00 | 0.15 | 0.00 | 73 | 1011.2 |
| 20260503234550 | 15 | 25 | 9.7 | 25.7 | 0.00 | 0.58 | 0.00 | 75 | 1011.3 |
| 20260503233044 | 14 | 324 | 8.0 | 22.5 | 0.00 | 0.58 | 0.00 | 77 | 1011.0 |
| 20260503231543 | 13 | 37 | 8.0 | 17.7 | 0.00 | 0.58 | 0.00 | 77 | 1011.2 |
| 20260503230058 | 13 | 60 | 4.8 | 22.5 | 0.00 | 0.58 | 0.00 | 79 | 1011.6 |
| 20260503224543 | 12 | 40 | 4.8 | 16.1 | 0.00 | 0.58 | 0.00 | 80 | 1011.6 |
| 20260503223051 | 12 | 42 | 6.4 | 16.1 | 0.00 | 0.58 | 0.00 | 78 | 1011.7 |
| 20260503221551 | 12 | 46 | 4.8 | 12.9 | 0.00 | 0.58 | 0.00 | 82 | 1011.5 |
| 20260503220051 | 11 | 11 | 4.8 | 14.5 | 0.00 | 0.58 | 0.00 | 83 | 1011.4 |
| 20260503214554 | 11 | 43 | 3.2 | 14.5 | 0.00 | 0.58 | 0.00 | 83 | 1011.3 |
| 20260503213046 | 10 | 19 | 3.2 | 16.1 | 0.00 | 0.58 | 0.00 | 84 | 1011.3 |
| 20260503211549 | 10 | 352 | 1.6 | 12.9 | 0.00 | 0.58 | 0.00 | 85 | 1011.3 |
| 20260503210039 | 10 | 53 | 1.6 | 8.0 | 0.00 | 0.58 | 0.00 | 85 | 1011.4 |
| 20260503204547 | 10 | 27 | 3.2 | 12.9 | 0.00 | 0.58 | 0.00 | 84 | 1011.2 |
| 20260503203049 | 10 | 0 | 3.2 | 14.5 | 0.00 | 0.58 | 0.00 | 84 | 1011.3 |
| 20260503201550 | 11 | 0 | 3.2 | 12.9 | 0.00 | 0.58 | 0.00 | 83 | 1011.2 |
| 20260503200049 | 11 | 17 | 1.6 | 11.3 | 0.00 | 0.58 | 0.00 | 84 | 1011.2 |
| 20260503194559 | 11 | 24 | 3.2 | 12.9 | 0.00 | 0.58 | 0.00 | 84 | 1011.0 |
| 20260503193049 | 10 | 44 | 3.2 | 14.5 | 0.00 | 0.58 | 0.00 | 85 | 1011.0 |
| 20260503191552 | 10 | 64 | 4.8 | 14.5 | 0.00 | 0.58 | 0.00 | 85 | 1011.1 |
| 20260503190048 | 10 | 0 | 1.6 | 14.5 | 0.00 | 0.58 | 0.00 | 86 | 1011.2 |
| 20260503184544 | 10 | 350 | 1.6 | 8.0 | 0.00 | 0.58 | 0.00 | 87 | 1011.4 |
| 20260503183050 | 10 | 70 | 4.8 | 9.7 | 0.00 | 0.58 | 0.00 | 87 | 1011.5 |
| 20260503181557 | 10 | 332 | 1.6 | 6.4 | 0.00 | 0.58 | 0.00 | 88 | 1011.4 |
| 20260503180048 | 10 | 43 | 4.8 | 9.7 | 0.00 | 0.58 | 0.00 | 88 | 1011.6 |
| 20260503174556 | 10 | 54 | 3.2 | 12.9 | 0.00 | 0.58 | 0.00 | 88 | 1011.8 |
| 20260503173044 | 10 | 74 | 4.8 | 12.9 | 0.00 | 0.58 | 0.00 | 89 | 1011.9 |
| 20260503171543 | 10 | 57 | 6.4 | 14.5 | 0.00 | 0.58 | 0.00 | 89 | 1012.0 |
| 20260503081549 | 12 | 0 | 0.0 | 4.8 | 0.00 | 0.58 | 0.58 | 82 | 1011.5 |
| 20260503071554 | 15 | 0 | 0.0 | 9.7 | 0.00 | 0.58 | 0.58 | 70 | 1011.2 |
| 20260503054550 | 18 | 315 | 4.8 | 17.7 | 0.00 | 0.58 | 0.58 | 58 | 1011.0 |
| 20260503053048 | 18 | 312 | 6.4 | 20.9 | 0.00 | 0.58 | 0.58 | 58 | 1011.0 |